Time,TemperatureF,DewpointF,PressureIn,WindDirection,WindDirectionDegrees,WindSpeedMPH,WindSpeedGustMPH,Humidity,HourlyPrecipIn,Conditions,Clouds,dailyrainin,SoftwareType,DateUTC
2013-03-19 00:03:00,26.0,20.0,30.20,West,266,2.0,5.0,77,0.00,,,0.00,,2013-03-19 04:03:00,
2013-03-19 00:13:00,26.0,20.0,30.20,West,266,2.0,5.0,77,0.00,,,0.00,,2013-03-19 04:13:00,
2013-03-19 00:23:00,25.0,21.0,30.29,WSW,248,0.0,5.0,84,0.00,,,0.00,,2013-03-19 04:23:00,
2013-03-19 00:34:00,25.0,22.0,30.17,North,355,1.0,5.0,88,0.00,,,0.00,,2013-03-19 04:34:00,
2013-03-19 00:43:00,25.0,22.0,30.17,North,355,1.0,5.0,88,0.00,,,0.00,,2013-03-19 04:43:00,
2013-03-19 00:53:00,25.0,23.0,30.16,WNW,282,2.0,6.0,92,0.00,,,0.00,,2013-03-19 04:53:00,
2013-03-19 01:02:00,24.0,22.0,30.14,NW,322,2.0,5.0,93,0.00,,,0.00,,2013-03-19 05:02:00,
2013-03-19 01:12:00,24.0,22.0,30.14,NW,322,2.0,5.0,93,0.00,,,0.00,,2013-03-19 05:12:00,
2013-03-19 01:22:00,24.0,23.0,30.14,NE,35,2.0,5.0,94,0.00,,,0.00,,2013-03-19 05:22:00,
2013-03-19 01:32:00,24.0,23.0,30.13,NNE,12,1.0,5.0,94,0.00,,,0.00,,2013-03-19 05:32:00,
2013-03-19 01:43:00,24.0,23.0,30.13,NNE,12,1.0,5.0,94,0.00,,,0.00,,2013-03-19 05:43:00,
2013-03-19 01:52:00,24.0,23.0,30.11,West,260,2.0,12.0,94,0.00,,,0.00,,2013-03-19 05:52:00,
2013-03-19 02:02:00,24.0,23.0,30.11,North,9,1.0,6.0,94,0.00,,,0.00,,2013-03-19 06:02:00,
2013-03-19 02:12:00,24.0,23.0,30.11,North,9,1.0,6.0,94,0.00,,,0.00,,2013-03-19 06:12:00,
2013-03-19 02:22:00,24.0,23.0,30.10,NNE,24,2.0,6.0,94,0.00,,,0.00,,2013-03-19 06:22:00,
2013-03-19 02:32:00,24.0,23.0,30.08,WNW,283,3.0,6.0,95,0.00,,,0.00,,2013-03-19 06:32:00,
2013-03-19 02:42:00,24.0,23.0,30.08,WNW,283,3.0,6.0,95,0.00,,,0.00,,2013-03-19 06:42:00,
2013-03-19 02:53:00,24.0,23.0,30.17,WNW,289,2.0,7.0,94,0.00,,,0.00,,2013-03-19 06:53:00,
2013-03-19 03:02:00,24.0,23.0,30.16,WSW,244,2.0,9.0,95,0.00,,,0.00,,2013-03-19 07:02:00,
2013-03-19 03:12:00,24.0,23.0,30.16,WSW,244,2.0,9.0,95,0.00,,,0.00,,2013-03-19 07:12:00,
2013-03-19 03:22:00,24.0,23.0,30.06,WSW,243,4.0,6.0,95,0.00,,,0.00,,2013-03-19 07:22:00,
2013-03-19 03:32:00,24.0,23.0,30.06,East,95,3.0,9.0,95,0.00,,,0.00,,2013-03-19 07:32:00,
2013-03-19 03:42:00,24.0,23.0,30.06,East,95,3.0,9.0,95,0.00,,,0.00,,2013-03-19 07:42:00,
2013-03-19 03:52:00,24.0,23.0,30.05,ESE,108,3.0,7.0,95,0.00,,,0.00,,2013-03-19 07:52:00,
2013-03-19 04:03:00,24.0,23.0,30.05,WSW,250,3.0,10.0,95,0.00,,,0.00,,2013-03-19 08:03:00,
2013-03-19 04:12:00,24.0,23.0,30.05,WSW,250,3.0,10.0,95,0.00,,,0.00,,2013-03-19 08:12:00,
2013-03-19 04:22:00,24.0,23.0,30.04,WSW,246,3.0,9.0,95,0.00,,,0.00,,2013-03-19 08:22:00,
2013-03-19 04:32:00,24.0,23.0,30.03,WSW,237,3.0,8.0,95,0.00,,,0.00,,2013-03-19 08:32:00,
2013-03-19 04:42:00,24.0,23.0,30.03,WSW,237,3.0,8.0,95,0.00,,,0.00,,2013-03-19 08:42:00,
2013-03-19 04:52:00,24.0,23.0,30.04,WSW,243,2.0,9.0,96,0.00,,,0.00,,2013-03-19 08:52:00,
2013-03-19 05:02:00,24.0,23.0,30.03,WSW,237,3.0,6.0,96,0.00,,,0.00,,2013-03-19 09:02:00,
2013-03-19 05:12:00,24.0,23.0,30.03,WSW,237,3.0,6.0,96,0.00,,,0.00,,2013-03-19 09:12:00,
2013-03-19 05:23:00,24.0,23.0,30.01,ENE,73,2.0,7.0,96,0.00,,,0.00,,2013-03-19 09:23:00,
2013-03-19 05:33:00,24.0,23.0,30.11,North,4,2.0,8.0,96,0.00,,,0.00,,2013-03-19 09:33:00,
2013-03-19 05:43:00,24.0,23.0,30.11,North,4,2.0,8.0,96,0.00,,,0.00,,2013-03-19 09:43:00,
2013-03-19 05:53:00,24.0,23.0,30.11,SW,234,2.0,7.0,96,0.00,,,0.00,,2013-03-19 09:53:00,
2013-03-19 06:04:00,25.0,24.0,30.01,SW,221,3.0,12.0,96,0.00,,,0.00,,2013-03-19 10:04:00,
2013-03-19 06:13:00,25.0,24.0,30.01,SW,221,3.0,12.0,96,0.00,,,0.00,,2013-03-19 10:13:00,
2013-03-19 06:23:00,25.0,24.0,30.01,NNW,346,2.0,10.0,96,0.00,,,0.00,,2013-03-19 10:23:00,
2013-03-19 06:33:00,25.0,24.0,30.00,West,266,2.0,9.0,96,0.00,,,0.00,,2013-03-19 10:33:00,
2013-03-19 06:42:00,25.0,24.0,30.00,West,266,2.0,9.0,96,0.00,,,0.00,,2013-03-19 10:42:00,
2013-03-19 06:53:00,25.0,24.0,30.00,WSW,256,3.0,9.0,96,0.00,,,0.00,,2013-03-19 10:53:00,
2013-03-19 07:03:00,25.0,24.0,29.99,NNE,19,3.0,9.0,96,0.00,,,0.00,,2013-03-19 11:03:00,
2013-03-19 07:12:00,25.0,24.0,29.99,NNE,19,3.0,9.0,96,0.00,,,0.00,,2013-03-19 11:12:00,
2013-03-19 07:22:00,25.0,24.0,29.98,West,276,3.0,8.0,96,0.00,,,0.00,,2013-03-19 11:22:00,
2013-03-19 07:33:00,25.0,24.0,29.98,NNW,332,4.0,7.0,96,0.00,,,0.00,,2013-03-19 11:33:00,
2013-03-19 07:43:00,25.0,24.0,29.98,NNW,332,4.0,7.0,96,0.00,,,0.00,,2013-03-19 11:43:00,
2013-03-19 07:53:00,26.0,25.0,29.97,South,187,3.0,11.0,96,0.00,,,0.00,,2013-03-19 11:53:00,
2013-03-19 08:02:00,26.0,25.0,29.96,NW,304,3.0,8.0,96,0.00,,,0.00,,2013-03-19 12:02:00,
2013-03-19 08:12:00,26.0,25.0,29.96,NW,304,3.0,8.0,96,0.00,,,0.00,,2013-03-19 12:12:00,
2013-03-19 08:23:00,26.0,25.0,29.95,West,263,3.0,12.0,96,0.00,,,0.00,,2013-03-19 12:23:00,
2013-03-19 08:33:00,26.0,25.0,29.94,SW,227,5.0,15.0,96,0.00,,,0.00,,2013-03-19 12:33:00,
2013-03-19 08:43:00,26.0,25.0,29.94,SW,227,5.0,15.0,96,0.00,,,0.00,,2013-03-19 12:43:00,
2013-03-19 08:52:00,26.0,25.0,30.02,NE,47,3.0,7.0,96,0.00,,,0.00,,2013-03-19 12:52:00,
2013-03-19 09:02:00,26.0,25.0,29.94,SE,142,3.0,10.0,96,0.00,,,0.00,,2013-03-19 13:02:00,
2013-03-19 09:12:00,26.0,25.0,29.94,SE,142,3.0,10.0,96,0.00,,,0.00,,2013-03-19 13:12:00,
2013-03-19 09:23:00,27.0,26.0,29.92,West,277,4.0,9.0,96,0.00,,,0.00,,2013-03-19 13:23:00,
2013-03-19 09:33:00,27.0,26.0,29.92,North,351,3.0,10.0,96,0.00,,,0.00,,2013-03-19 13:33:00,
2013-03-19 09:42:00,27.0,26.0,29.92,North,351,3.0,10.0,96,0.00,,,0.00,,2013-03-19 13:42:00,
2013-03-19 09:53:00,27.0,26.0,29.91,WNW,298,3.0,8.0,96,0.00,,,0.00,,2013-03-19 13:53:00,
2013-03-19 10:02:00,27.0,26.0,29.89,WSW,246,3.0,8.0,96,0.00,,,0.00,,2013-03-19 14:02:00,
2013-03-19 10:12:00,27.0,26.0,29.89,WSW,246,3.0,8.0,96,0.00,,,0.00,,2013-03-19 14:12:00,
2013-03-19 10:22:00,27.0,26.0,29.89,SE,126,5.0,12.0,96,0.00,,,0.00,,2013-03-19 14:22:00,
2013-03-19 10:32:00,27.0,26.0,29.89,West,259,4.0,8.0,96,0.00,,,0.00,,2013-03-19 14:32:00,
2013-03-19 10:42:00,27.0,26.0,29.89,West,259,4.0,8.0,96,0.00,,,0.00,,2013-03-19 14:42:00,
2013-03-19 10:53:00,28.0,27.0,29.88,SW,227,5.0,11.0,96,0.00,,,0.00,,2013-03-19 14:53:00,
2013-03-19 11:02:00,28.0,27.0,29.86,NW,315,4.0,12.0,96,0.00,,,0.00,,2013-03-19 15:02:00,
2013-03-19 11:12:00,28.0,27.0,29.86,NW,315,4.0,12.0,96,0.00,,,0.00,,2013-03-19 15:12:00,
2013-03-19 11:23:00,29.0,28.0,29.86,North,355,3.0,12.0,96,0.00,,,0.00,,2013-03-19 15:23:00,
2013-03-19 11:34:00,28.0,27.0,29.86,South,183,2.0,13.0,96,0.00,,,0.00,,2013-03-19 15:34:00,
2013-03-19 11:44:00,28.0,27.0,29.86,South,183,2.0,13.0,96,0.00,,,0.00,,2013-03-19 15:44:00,
2013-03-19 11:54:00,28.0,27.0,29.92,WSW,250,3.0,9.0,97,0.00,,,0.00,,2013-03-19 15:54:00,
2013-03-19 12:04:00,29.0,28.0,29.89,WSW,251,5.0,13.0,97,0.00,,,0.00,,2013-03-19 16:04:00,
2013-03-19 12:13:00,29.0,28.0,29.89,WSW,251,5.0,13.0,97,0.00,,,0.00,,2013-03-19 16:13:00,
2013-03-19 12:24:00,29.0,28.0,29.82,North,353,3.0,13.0,96,0.00,,,0.00,,2013-03-19 16:24:00,
2013-03-19 12:34:00,30.0,29.0,29.83,SSW,213,4.0,12.0,96,0.00,,,0.00,,2013-03-19 16:34:00,
2013-03-19 12:44:00,30.0,29.0,29.83,SSW,213,4.0,12.0,96,0.00,,,0.00,,2013-03-19 16:44:00,
2013-03-19 12:54:00,29.0,28.0,29.81,NNE,22,4.0,9.0,96,0.00,,,0.00,,2013-03-19 16:54:00,
2013-03-19 13:03:00,29.0,28.0,29.82,WSW,243,4.0,9.0,96,0.00,,,0.00,,2013-03-19 17:03:00,
2013-03-19 13:14:00,29.0,28.0,29.82,WSW,243,4.0,9.0,96,0.00,,,0.00,,2013-03-19 17:14:00,
2013-03-19 13:24:00,29.0,28.0,29.85,West,260,2.0,10.0,97,0.00,,,0.00,,2013-03-19 17:24:00,
2013-03-19 13:34:00,29.0,28.0,29.87,NW,311,1.0,3.0,97,0.00,,,0.00,,2013-03-19 17:34:00,
2013-03-19 13:44:00,29.0,28.0,29.87,NW,311,1.0,3.0,97,0.00,,,0.00,,2013-03-19 17:44:00,
2013-03-19 13:53:00,29.0,28.0,29.87,ESE,114,1.0,5.0,97,0.00,,,0.00,,2013-03-19 17:53:00,
2013-03-19 14:03:00,29.0,28.0,29.85,NW,313,0.0,3.0,97,0.00,,,0.00,,2013-03-19 18:03:00,
2013-03-19 14:14:00,29.0,28.0,29.85,NW,313,0.0,3.0,97,0.00,,,0.00,,2013-03-19 18:14:00,
2013-03-19 14:23:00,29.0,28.0,29.82,West,281,4.0,10.0,97,0.00,,,0.00,,2013-03-19 18:23:00,
2013-03-19 14:33:00,29.0,28.0,29.82,WSW,241,2.0,8.0,97,0.00,,,0.00,,2013-03-19 18:33:00,
2013-03-19 14:43:00,29.0,28.0,29.82,WSW,241,2.0,8.0,97,0.00,,,0.00,,2013-03-19 18:43:00,
2013-03-19 14:53:00,28.0,27.0,29.88,WSW,238,2.0,8.0,97,0.00,,,0.00,,2013-03-19 18:53:00,
2013-03-19 15:02:00,28.0,27.0,29.85,NNE,25,1.0,11.0,97,0.00,,,0.00,,2013-03-19 19:02:00,
2013-03-19 15:12:00,28.0,27.0,29.85,NNE,25,1.0,11.0,97,0.00,,,0.00,,2013-03-19 19:12:00,
2013-03-19 15:22:00,28.0,27.0,29.77,West,269,3.0,10.0,97,0.00,,,0.00,,2013-03-19 19:22:00,
2013-03-19 15:33:00,29.0,28.0,29.73,SSE,149,3.0,7.0,97,0.00,,,0.00,,2013-03-19 19:33:00,
2013-03-19 15:43:00,29.0,28.0,29.73,SSE,149,3.0,7.0,97,0.00,,,0.00,,2013-03-19 19:43:00,
2013-03-19 15:53:00,29.0,28.0,29.71,SW,227,4.0,11.0,97,0.00,,,0.00,,2013-03-19 19:53:00,
2013-03-19 16:03:00,29.0,28.0,29.70,WNW,285,4.0,13.0,97,0.00,,,0.00,,2013-03-19 20:03:00,
2013-03-19 16:12:00,29.0,28.0,29.70,WNW,285,4.0,13.0,97,0.00,,,0.00,,2013-03-19 20:12:00,
2013-03-19 16:23:00,29.0,29.0,29.70,NNE,18,3.0,13.0,98,0.00,,,0.00,,2013-03-19 20:23:00,
2013-03-19 16:33:00,29.0,28.0,29.72,SSW,201,3.0,11.0,97,0.00,,,0.00,,2013-03-19 20:33:00,
2013-03-19 16:43:00,29.0,28.0,29.72,SSW,201,3.0,11.0,97,0.00,,,0.00,,2013-03-19 20:43:00,
2013-03-19 16:53:00,28.0,27.0,29.72,SSW,196,4.0,9.0,97,0.00,,,0.00,,2013-03-19 20:53:00,
2013-03-19 17:02:00,28.0,27.0,29.72,NNE,29,2.0,8.0,97,0.00,,,0.00,,2013-03-19 21:02:00,
2013-03-19 17:12:00,28.0,27.0,29.72,NNE,29,2.0,8.0,97,0.00,,,0.00,,2013-03-19 21:12:00,
2013-03-19 17:23:00,28.0,28.0,29.71,WSW,237,3.0,8.0,98,0.00,,,0.00,,2013-03-19 21:23:00,
2013-03-19 17:34:00,28.0,27.0,29.71,WSW,258,3.0,7.0,97,0.00,,,0.00,,2013-03-19 21:34:00,
2013-03-19 17:43:00,28.0,27.0,29.71,WSW,258,3.0,7.0,97,0.00,,,0.00,,2013-03-19 21:43:00,
2013-03-19 17:53:00,27.0,26.0,29.71,NNE,22,2.0,7.0,97,0.00,,,0.00,,2013-03-19 21:53:00,
2013-03-19 18:03:00,26.0,25.0,29.78,West,277,1.0,7.0,97,0.00,,,0.00,,2013-03-19 22:03:00,
2013-03-19 18:13:00,26.0,25.0,29.78,West,277,1.0,7.0,97,0.00,,,0.00,,2013-03-19 22:13:00,
2013-03-19 18:24:00,26.0,25.0,29.79,NW,317,0.0,3.0,97,0.00,,,0.00,,2013-03-19 22:24:00,
2013-03-19 18:33:00,26.0,25.0,29.72,North,9,1.0,3.0,97,0.00,,,0.00,,2013-03-19 22:33:00,
2013-03-19 18:43:00,26.0,25.0,29.72,North,9,1.0,3.0,97,0.00,,,0.00,,2013-03-19 22:43:00,
2013-03-19 18:53:00,25.0,24.0,29.72,NW,315,1.0,5.0,97,0.00,,,0.00,,2013-03-19 22:53:00,
2013-03-19 19:03:00,25.0,24.0,29.72,West,279,1.0,2.0,97,0.00,,,0.00,,2013-03-19 23:03:00,
2013-03-19 19:12:00,25.0,24.0,29.72,West,279,1.0,2.0,97,0.00,,,0.00,,2013-03-19 23:12:00,
2013-03-19 19:22:00,24.0,23.0,29.72,NNW,341,1.0,7.0,96,0.00,,,0.00,,2013-03-19 23:22:00,
2013-03-19 19:32:00,24.0,23.0,29.73,NE,38,2.0,5.0,97,0.00,,,0.00,,2013-03-19 23:32:00,
2013-03-19 19:43:00,24.0,23.0,29.73,NE,38,2.0,5.0,97,0.00,,,0.00,,2013-03-19 23:43:00,
2013-03-19 19:53:00,24.0,23.0,29.73,SE,125,2.0,9.0,96,0.00,,,0.00,,2013-03-19 23:53:00,
2013-03-19 20:03:00,24.0,23.0,29.74,NNE,15,1.0,2.0,97,0.00,,,0.00,,2013-03-20 00:03:00,
2013-03-19 20:13:00,24.0,23.0,29.74,NNE,15,1.0,2.0,97,0.00,,,0.00,,2013-03-20 00:13:00,
2013-03-19 20:22:00,24.0,23.0,29.73,NE,45,0.0,3.0,97,0.00,,,0.00,,2013-03-20 00:22:00,
2013-03-19 20:33:00,24.0,23.0,29.72,NNE,21,0.0,3.0,97,0.00,,,0.00,,2013-03-20 00:33:00,
2013-03-19 20:42:00,24.0,23.0,29.72,NNE,21,0.0,3.0,97,0.00,,,0.00,,2013-03-20 00:42:00,
2013-03-19 20:52:00,24.0,23.0,29.73,NNE,15,0.0,2.0,97,0.00,,,0.00,,2013-03-20 00:52:00,
2013-03-19 21:03:00,23.0,22.0,29.73,NNE,32,1.0,2.0,96,0.00,,,0.00,,2013-03-20 01:03:00,
2013-03-19 21:12:00,23.0,22.0,29.73,NNE,32,1.0,2.0,96,0.00,,,0.00,,2013-03-20 01:12:00,
2013-03-19 21:22:00,22.0,21.0,29.83,North,350,0.0,3.0,96,0.00,,,0.00,,2013-03-20 01:22:00,
2013-03-19 21:32:00,23.0,22.0,29.75,East,91,1.0,2.0,96,0.00,,,0.00,,2013-03-20 01:32:00,
2013-03-19 21:42:00,23.0,22.0,29.75,East,91,1.0,2.0,96,0.00,,,0.00,,2013-03-20 01:42:00,
2013-03-19 21:53:00,22.0,21.0,29.75,NE,42,1.0,3.0,96,0.00,,,0.00,,2013-03-20 01:53:00,
2013-03-19 22:02:00,22.0,21.0,29.75,NNE,15,0.0,1.0,96,0.00,,,0.00,,2013-03-20 02:02:00,
2013-03-19 22:12:00,22.0,21.0,29.75,NNE,15,0.0,1.0,96,0.00,,,0.00,,2013-03-20 02:12:00,
2013-03-19 22:22:00,22.0,21.0,29.75,NNE,15,0.0,0.0,96,0.00,,,0.00,,2013-03-20 02:22:00,
2013-03-19 22:32:00,22.0,21.0,29.75,West,275,0.0,1.0,96,0.00,,,0.00,,2013-03-20 02:32:00,
2013-03-19 22:42:00,22.0,21.0,29.75,West,275,0.0,1.0,96,0.00,,,0.00,,2013-03-20 02:42:00,
2013-03-19 22:53:00,22.0,21.0,29.75,NNE,15,0.0,1.0,96,0.00,,,0.00,,2013-03-20 02:53:00,
2013-03-19 23:02:00,22.0,21.0,29.75,NNE,12,0.0,1.0,96,0.00,,,0.00,,2013-03-20 03:02:00,
2013-03-19 23:12:00,22.0,21.0,29.74,North,9,0.0,0.0,96,0.00,,,0.00,,2013-03-20 03:12:00,
2013-03-19 23:22:00,22.0,21.0,29.74,North,9,0.0,0.0,96,0.00,,,0.00,,2013-03-20 03:22:00,
2013-03-19 23:34:00,22.0,21.0,29.73,NW,305,0.0,0.0,96,0.00,,,0.00,,2013-03-20 03:34:00,
2013-03-19 23:43:00,22.0,21.0,29.73,NW,305,0.0,0.0,96,0.00,,,0.00,,2013-03-20 03:43:00,
2013-03-19 23:53:00,21.0,20.0,29.81,NW,305,0.0,0.0,96,0.00,,,0.00,,2013-03-20 03:53:00,